This is the latest recevied weather packets stored in our database for station/object XQ6AK-15. If no packets are shown the sender has not sent any weather packets the latest 10 day(s).
| Time | Temp. | Humidity | Pressure | Rain* | Wind** | Luminosity | Snow |
|---|---|---|---|---|---|---|---|
| 1778345641 | 12.78° C | 70% | 1025.6 hPa | 0 mm | - | 395 W/m² | - |
| 1778345336 | 12.22° C | 70% | 1025.7 hPa | 0 mm | - | 335 W/m² | - |
| 1778345033 | 12.78° C | 72% | 1025.7 hPa | 0 mm | - | 354 W/m² | - |
| 1778344729 | 12.78° C | 70% | 1025.9 hPa | 0 mm | - | 430 W/m² | - |
| 1778344426 | 12.22° C | 70% | 1025.9 hPa | 0 mm | - | 419 W/m² | - |
| 1778344125 | 12.78° C | 69% | 1026 hPa | 0 mm | - | 411 W/m² | - |
| 1778343818 | 13.33° C | 72% | 1025.9 hPa | 0 mm | - | 433 W/m² | - |
| 1778343514 | 12.22° C | 73% | 1026.1 hPa | 0 mm | - | 396 W/m² | - |
| 1778343210 | 12.22° C | 73% | 1026.1 hPa | 0 mm | - | 380 W/m² | - |
| 1778342907 | 12.22° C | 73% | 1026.1 hPa | 0 mm | - | 370 W/m² | - |
| 1778342603 | 12.78° C | 75% | 1026.2 hPa | 0 mm | - | 367 W/m² | - |
| 1778342298 | 13.33° C | 73% | 1026.4 hPa | 0 mm | - | 326 W/m² | - |
| 1778341995 | 13.33° C | 73% | 1026.4 hPa | 0 mm | - | 319 W/m² | - |
| 1778341691 | 13.33° C | 72% | 1026.3 hPa | 0 mm | - | 347 W/m² | - |
| 1778341388 | 12.78° C | 75% | 1026.1 hPa | 0 mm | - | 363 W/m² | - |
| 1778341085 | 12.22° C | 77% | 1026.1 hPa | 0 mm | - | 383 W/m² | - |
| 1778340781 | 11.11° C | 79% | 1026.3 hPa | 0 mm | - | 382 W/m² | - |
| 1778340478 | 10.56° C | 81% | 1026.5 hPa | 0 mm | - | 369 W/m² | - |
| 1778340174 | 10° C | 85% | 1026.6 hPa | 0 mm | - | 356 W/m² | - |
| 1778339871 | 9.44° C | 88% | 1026.7 hPa | 0 mm | - | 356 W/m² | - |
| 1778339567 | 8.89° C | 88% | 1026.8 hPa | 0 mm | - | 356 W/m² | - |
| 1778339266 | 8.89° C | 90% | 1026.7 hPa | 0 mm | - | 366 W/m² | - |
| 1778338964 | 7.78° C | 95% | 1026.6 hPa | 0 mm | - | 350 W/m² | - |
| 1778338660 | 6.67° C | 97% | 1026.8 hPa | 0 mm | - | 321 W/m² | - |
| 1778338354 | 7.22° C | 99% | 1026.7 hPa | 0 mm | - | 327 W/m² | - |
* Rain latest hour (hover to see other rain measurements)
** Current wind speed in m/s (hover to see current wind gust speed)